Content
SEND FEEDBACK

Daily
Averages
Monthly
Summary
United States of America

PILLAGER, MINNESOTA


Home > North America > United States > Minnesota
Elevation: 1209 feet     Latitude: 46 25N     Longitude: 094 20W

WEATHER
 
SELECT A DAY
Number of Records: 405,857;   Date Range: 1/1/95 - 12/19/14
 
SHARE

PRINT THIS DATA

[ ← Previous Day ]
WEATHER ALMANAC - JANUARY 31, 2013
[ Next Day → ]
[ °C ]   °F
Weather ElementAverageHighLow
Temperature-1.3 °F3.9 °F (12:53 am)-11.9 °F (10:53 pm)
Dewpoint-11.4 °F-4 °F (12:30 am)-22 °F (9:53 pm)
Humidity62.6 %72 % (12:30 am)56 % (3:15 pm)
Barometer30.02 in30.32 in (11:53 pm)29.75 in (12:30 am)
Wind Speed14 mph21.9 mph (6:53 pm)
Wind Gust26.5 mph (6:53 pm)
Weather ElementAverage
Visibility5.8 mi
Wind DirectionNW (311.6 °)

Weather ElementTotal
Precipitation---
Heating Degree Days69 (Base 65)
Averaged from 43 records on January 31, 2013
WEATHER CONDITIONS BREAKOUT
WIND DIRECTION BREAKOUT
WEATHER BY HOUR - JANUARY 31, 2013
[ °C ]   °F
Local TimeTemperatureDewpointHumidityBarometerVisibilityWind DirectionWind SpeedGust SpeedPrecipitationEventsConditions
12:30 AM3.2 °F-4.0 °F72 %29.75 in4.0 miNW (320°)12.7 mph21.9 mph0.00 inSnowLight Snow
12:53 AM3.9 °F-4.0 °F70 %29.83 in2.0 miNW (310°)8.1 mph0.00 inSnowLight Snow
1:16 AM3.2 °F-4.0 °F72 %29.75 in2.5 miNW (310°)11.5 mph0.00 inSnowLight Snow
1:43 AM3.2 °F-5.8 °F66 %29.75 in4.0 miNW (320°)11.5 mph0.00 inSnowLight Snow
1:53 AM3.0 °F-5.1 °F69 %29.85 in4.0 miNW (310°)12.7 mph19.6 mph0.00 inSnowLight Snow
2:53 AM1.0 °F-7.1 °F69 %29.87 in3.0 miNW (310°)11.5 mph0.00 inSnowLight Snow
3:12 AM1.4 °F-7.6 °F66 %29.78 in2.5 miNW (310°)11.5 mph0.00 inSnowLight Snow
3:23 AM1.4 °F-7.6 °F66 %29.78 in4.0 miNW (310°)12.7 mph18.4 mph0.00 inSnowLight Snow
3:53 AM1.0 °F-7.1 °F69 %29.88 in3.0 miNW (310°)12.7 mph0.00 inSnowLight Snow
4:53 AM0.0 °F-9.0 °F66 %29.91 in4.0 miNW (320°)15.0 mph0.00 inSnowLight Snow
6:13 AM-0.4 °F-9.4 °F66 %29.85 in4.0 miNW (310°)13.8 mph0.00 inHaze
6:43 AM-2.2 °F-9.4 °F71 %29.86 in1.8 miNW (310°)12.7 mph23.0 mph0.00 inSnowLight Snow
6:53 AM-2.0 °F-9.9 °F69 %29.96 in2.5 miNW (320°)13.8 mph0.00 inHaze
7:01 AM-2.2 °F-11.2 °F66 %29.87 in3.0 miNW (320°)13.8 mph24.2 mphHaze
7:53 AM-2.9 °F-11.9 °F65 %30.00 in7.0 miNW (320°)15.0 mph20.7 mphMostly Cloudy
8:53 AM-2.9 °F-13.0 °F62 %30.04 in10.0 miNW (320°)11.5 mph20.7 mphPartly Cloudy
9:27 AM-2.2 °F-13.0 °F60 %29.95 in2.5 miNW (320°)17.3 mph23.0 mph0.00 inMostly Cloudy
9:36 AM-2.2 °F-13.0 °F60 %29.95 in3.0 miNW (310°)19.6 mph24.2 mph0.00 inSnowLight Snow
9:53 AM-2.9 °F-13.0 °F62 %30.06 in8.0 miNNW (330°)18.4 mph0.00 inScattered Clouds
10:53 AM-2.0 °F-11.9 °F63 %30.09 in7.0 miNW (320°)15.0 mph0.00 inMostly Cloudy
11:00 AM-0.4 °F-11.2 °F60 %29.99 in4.0 miNW (320°)16.1 mph21.9 mph0.00 inSnowLight Snow
11:06 AM-2.2 °F-11.2 °F66 %29.99 in2.5 miNW (320°)18.4 mph24.2 mph0.00 inSnowLight Snow
11:11 AM-0.4 °F-11.2 °F60 %30.00 in3.0 miNW (310°)13.8 mph0.00 inSnowLight Snow
11:19 AM-0.4 °F-11.2 °F60 %30.00 in4.0 miNW (310°)13.8 mph20.7 mph0.00 inSnowLight Snow
11:26 AM-0.4 °F-11.2 °F60 %30.00 in6.0 miNW (310°)16.1 mph23.0 mph0.00 inHaze
11:33 AM-0.4 °F-11.2 °F60 %30.00 in4.0 miNW (310°)19.6 mph23.0 mph0.00 inHaze
11:53 AM-0.9 °F-11.0 °F62 %30.11 in2.5 miNW (320°)17.3 mph0.00 inSnowLight Snow
12:05 PM-0.4 °F-11.2 °F60 %30.00 in4.0 miNW (320°)12.7 mph24.2 mph0.00 inSnowLight Snow
12:31 PM-0.4 °F-11.2 °F60 %30.01 in10.0 miNW (310°)18.4 mph24.2 mph0.00 inScattered Clouds
12:53 PM1.0 °F-11.0 °F57 %30.12 in5.0 miNNW (330°)16.1 mph24.2 mph0.00 inMostly Cloudy
1:53 PM1.9 °F-9.0 °F60 %30.13 in5.0 miNW (320°)11.5 mph24.2 mph0.00 inOvercast
2:53 PM1.9 °F-9.9 °F58 %30.15 in10.0 miWNW (300°)15.0 mph0.00 inPartly Cloudy
3:15 PM3.2 °F-9.4 °F56 %30.06 in10.0 miNW (310°)13.8 mph21.9 mphMostly Cloudy
3:53 PM1.9 °F-9.9 °F58 %30.18 in9.0 miWNW (290°)12.7 mphMostly Cloudy
4:25 PM1.4 °F-11.2 °F56 %30.09 in10.0 miWNW (300°)12.7 mph23.0 mphScattered Clouds
4:53 PM0.0 °F-11.9 °F57 %30.21 in10.0 miWNW (300°)15.0 mph21.9 mphClear
5:53 PM-2.9 °F-15.0 °F56 %30.24 in10.0 miWNW (290°)10.4 mphClear
6:53 PM-7.1 °F-18.0 °F59 %30.27 in10.0 miNW (310°)21.9 mph26.5 mphClear
7:53 PM-8.0 °F-18.9 °F59 %30.29 in10.0 miWNW (290°)10.4 mphClear
8:53 PM-9.9 °F-20.9 °F59 %30.30 in10.0 miNW (320°)13.8 mphClear
9:53 PM-11.0 °F-22.0 °F58 %30.31 in10.0 miNW (310°)10.4 mphClear
10:53 PM-11.9 °F-22.0 °F61 %30.31 in10.0 miWNW (300°)9.2 mphClear
11:53 PM-11.9 °F-22.0 °F61 %30.32 in10.0 miWNW (290°)10.4 mphClear
Hourly data recorded from KBRD, located miles away from Pillager, Minnesota







STORIES FROM OUR PARTNERS